COSMOS 1823 DEB

Satellite information

Favourite Embed

Satellite Type and Status

DEBRISIN ORBIT

Key statistics

Satellite COSMOS 1823 DEB at a glance.

Uptime

13960

Days in orbit

Revolutions

≈ 12.5

Per day

Orbit

LEO

Low Earth Orbit

Inclination

73.6

Latest

Satellite identification and parameters

Extended collection of information and parameters for COSMOS 1823 DEB.

Object identification

Identified? True

Debris? True

Object name: COSMOS 1823 DEB

International designator: 1987-020EU

Object number (NORAD): 39820

Object ID (CCSDS): 39820

Country: COMMONWEALTH OF INDEPENDENT STATES (CIS)

Current information (Y/N): Y

RCS size: SMALL

Orbital parameters

Period: 115.603 minutes

Inclination: 73.6309 deg

SMA: 7860.931 km

Apoapsis: 1501.703 km

Periapsis: 1463.889 km

RAAN: 161.0798 deg

Eccentricy: 0.0024052

Argument of periapsis: 306.5274 deg

Mean anomaly: 72.0912 deg

Mean motion: 12.45637736 rev/day

Mean motion (dot): 0.00000163 rev/day2

B* drag term: 0.0012548 1/REarth

Two-line elements (TLE)

Creation date: May 10, 2025, 5:27 p.m.

Reference frame: TEME

Reference center: EARTH

Epoch: May 10, 2025, 8:04 a.m. UTC

TLE line 0: 0 COSMOS 1823 DEB

TLE line 1: 1 39820U 87020EU 25130.33629973 .00000163 00000-0 12548-2 0 9994

TLE line 2: 2 39820 73.6309 161.0798 0024052 306.5274 72.0912 12.45637736497111

Live tracking on map

Real-time ground track for satellite COSMOS 1823 DEB.

In-orbit conjunctions

A list of the most updated potential collisions computed for object COSMOS 1823 DEB.

Target Orbit TCA Probability of collision Miss distance Type
COSMOS 1088 LEO 2025-02-18 20:17:10 0.0008748569 162.0 (m) PAYLOAD
COSMOS 2014 LEO 2024-11-19 00:18:20 0.0002522591 320.0 (m) PAYLOAD

Associated space launch

A satellite for the GEO-IK geodetic system

COSMOS 1823 DEB was lifted into orbit during the mission ‘Tsiklon-3 | Geo-IK 9’, on board a Tsiklon-3 space rocket.

The launch took place on Feb. 20, 1987, 4:43 a.m. from 32/2.

For more information about the launch, click the button.

Launch to space Tsiklon-3 | Geo-IK 9
Tsiklon-3 | Geo-IK 9

Agency: N/A

Status: Launch Successful

Launch date: Feb. 20, 1987, 4:43 a.m. UTC

Rocket: Tsiklon-3

Launch pad: 32/2

Location: Plesetsk Cosmodrome, Russian Federation

...

Latest news about this satellite

There are no fresh news available about this satellite. Check back as we update our databases every day.


Newsletter sign-up

Weekly statistics, charts and insights to help you stay on top of the space industry.